• In Hungary
  • List of Countries
  • For 7 days
  • Water Temperature
  • Satellite Maps
  • Weather Map
  • News
  • Weather Widgets
  • user-avatar
    Login

    Hourly Weather Gromoty

    Today, 14 December, Thursday

    Time Temperature Precipitation Wind Pressure Humidity
    00:00 -3°C° 0 mm 7 mps 742 mmHg 75%
    01:00 -4°C° 0 mm 8 mps 740 mmHg 71%
    02:00 -2°C° 0 mm 8 mps 739 mmHg 69%
    03:00 -2°C° 0 mm 8 mps 739 mmHg 67%
    04:00 -2°C° 0 mm 8 mps 738 mmHg 65%
    05:00 -2°C° 0 mm 8 mps 737 mmHg 65%
    06:00 -2°C° 0 mm 8 mps 736 mmHg 65%
    07:00 -2°C° 0 mm 8 mps 735 mmHg 65%
    08:00 -1°C° 0.3 mm 8 mps 734 mmHg 70%
    09:00 -1°C° 0.3 mm 8 mps 734 mmHg 74%
    10:00 -1°C° 0.3 mm 8 mps 733 mmHg 78%
    11:00 -1°C° 0.3 mm 7 mps 733 mmHg 80%
    12:00 0°C° 0.3 mm 7 mps 733 mmHg 81%
    13:00 +2°C° 0.3 mm 6 mps 733 mmHg 82%
    14:00 +1°C° 0.2 mm 5 mps 732 mmHg 85%
    15:00 +1°C° 0.2 mm 4 mps 732 mmHg 87%
    16:00 0°C° 0.2 mm 4 mps 732 mmHg 90%
    17:00 0°C° 0.1 mm 4 mps 733 mmHg 90%
    18:00 0°C° 0.1 mm 4 mps 733 mmHg 91%
    19:00 0°C° 0.1 mm 4 mps 733 mmHg 91%
    20:00 0°C° 0 mm 5 mps 734 mmHg 91%
    21:00 0°C° 0 mm 5 mps 734 mmHg 90%
    22:00 0°C° 0 mm 5 mps 735 mmHg 90%
    23:00 0°C° 0 mm 5 mps 735 mmHg 89%

    Tomorrow, 15 December, Friday

    Time Temperature Precipitation Wind Pressure Humidity
    00:00 -1°C° 0 mm 5 mps 735 mmHg 88%
    01:00 -1°C° 0 mm 5 mps 736 mmHg 87%
    02:00 -1°C° 0.2 mm 5 mps 736 mmHg 86%
    03:00 -1°C° 0.2 mm 5 mps 736 mmHg 85%
    04:00 -1°C° 0.2 mm 5 mps 736 mmHg 84%
    05:00 -1°C° 0.3 mm 5 mps 736 mmHg 85%
    06:00 -1°C° 0.3 mm 5 mps 736 mmHg 86%
    07:00 -1°C° 0.3 mm 4 mps 736 mmHg 87%
    08:00 -1°C° 0.8 mm 4 mps 736 mmHg 88%
    09:00 -1°C° 0.8 mm 4 mps 737 mmHg 89%
    10:00 -1°C° 0.8 mm 4 mps 737 mmHg 89%
    11:00 0°C° 0.2 mm 3 mps 737 mmHg 91%
    12:00 0°C° 0.2 mm 3 mps 737 mmHg 92%
    13:00 +2°C° 0.2 mm 2 mps 737 mmHg 93%
    14:00 +1°C° 0 mm 2 mps 737 mmHg 93%
    15:00 +1°C° 0 mm 2 mps 737 mmHg 94%
    16:00 +1°C° 0 mm 2 mps 737 mmHg 94%
    17:00 -1°C° 0 mm 3 mps 738 mmHg 94%
    18:00 -1°C° 0 mm 3 mps 738 mmHg 94%
    19:00 -1°C° 0 mm 3 mps 738 mmHg 94%
    20:00 -2°C° 0 mm 3 mps 738 mmHg 94%
    21:00 -2°C° 0 mm 3 mps 739 mmHg 94%
    22:00 -2°C° 0 mm 3 mps 739 mmHg 94%
    23:00 -2°C° 0 mm 3 mps 739 mmHg 94%

    Day after tomorrow, 16 December, Saturday

    Time Temperature Precipitation Wind Pressure Humidity
    00:00 -3°C° 0 mm 4 mps 739 mmHg 94%
    01:00 -3°C° 0 mm 4 mps 740 mmHg 94%
    02:00 -3°C° 0 mm 4 mps 740 mmHg 94%
    03:00 -2°C° 0 mm 3 mps 740 mmHg 94%
    04:00 -4°C° 0 mm 3 mps 740 mmHg 94%
    05:00 -4°C° 0 mm 3 mps 740 mmHg 94%
    06:00 -4°C° 0 mm 3 mps 740 mmHg 94%
    07:00 -4°C° 0 mm 3 mps 740 mmHg 94%
    08:00 -4°C° 0 mm 3 mps 740 mmHg 92%
    09:00 -3°C° 0 mm 4 mps 741 mmHg 91%
    10:00 -3°C° 0 mm 4 mps 741 mmHg 90%
    11:00 -2°C° 0 mm 4 mps 741 mmHg 90%
    12:00 -2°C° 0 mm 4 mps 741 mmHg 90%
    13:00 -1°C° 0 mm 4 mps 742 mmHg 90%
    14:00 -1°C° 0 mm 4 mps 742 mmHg 90%
    15:00 -1°C° 0 mm 4 mps 742 mmHg 91%
    16:00 -1°C° 0 mm 4 mps 742 mmHg 91%
    17:00 -2°C° 0 mm 4 mps 743 mmHg 91%
    18:00 -2°C° 0 mm 4 mps 743 mmHg 90%
    19:00 -2°C° 0 mm 4 mps 743 mmHg 89%
    20:00 -2°C° 0 mm 4 mps 744 mmHg 89%
    21:00 -2°C° 0 mm 4 mps 744 mmHg 89%
    22:00 -2°C° 0 mm 4 mps 745 mmHg 89%
    23:00 -2°C° 0 mm 4 mps 745 mmHg 89%

    17 December, Sunday

    Time Temperature Precipitation Wind Pressure Humidity
    00:00 -2°C° 0 mm 4 mps 745 mmHg 90%
    01:00 -2°C° 0 mm 4 mps 745 mmHg 90%
    02:00 -2°C° 0 mm 4 mps 745 mmHg 89%
    03:00 -2°C° 0 mm 4 mps 746 mmHg 89%
    04:00 -2°C° 0 mm 4 mps 746 mmHg 88%
    05:00 -2°C° 0 mm 4 mps 746 mmHg 89%
    06:00 -3°C° 0 mm 4 mps 747 mmHg 89%
    07:00 -3°C° 0 mm 4 mps 747 mmHg 90%
    08:00 -3°C° 0 mm 4 mps 748 mmHg 89%
    09:00 -2°C° 0 mm 4 mps 748 mmHg 88%
    10:00 -2°C° 0 mm 4 mps 749 mmHg 87%
    11:00 -2°C° 0 mm 4 mps 749 mmHg 87%
    12:00 -1°C° 0 mm 4 mps 749 mmHg 86%
    13:00 -1°C° 0 mm 4 mps 749 mmHg 85%
    14:00 -1°C° 0 mm 4 mps 750 mmHg 86%
    15:00 -2°C° 0 mm 4 mps 750 mmHg 88%
    16:00 -1°C° 0 mm 3 mps 750 mmHg 89%
    17:00 -2°C° 0.1 mm 4 mps 751 mmHg 89%
    18:00 -2°C° 0.1 mm 4 mps 751 mmHg 89%
    19:00 -2°C° 0.1 mm 4 mps 751 mmHg 90%
    20:00 -2°C° 0.1 mm 4 mps 751 mmHg 89%
    21:00 -2°C° 0.1 mm 4 mps 752 mmHg 88%
    22:00 -2°C° 0.1 mm 5 mps 752 mmHg 87%
    23:00 -3°C° 0 mm 4 mps 752 mmHg 89%

    18 December, Monday

    Time Temperature Precipitation Wind Pressure Humidity
    00:00 -3°C° 0 mm 4 mps 752 mmHg 90%
    01:00 -3°C° 0 mm 4 mps 752 mmHg 91%
    02:00 -4°C° 0 mm 4 mps 751 mmHg 91%
    03:00 -4°C° 0 mm 3 mps 751 mmHg 92%
    04:00 -4°C° 0 mm 3 mps 751 mmHg 92%
    05:00 -5°C° 0 mm 3 mps 751 mmHg 93%
    06:00 -5°C° 0 mm 3 mps 751 mmHg 94%
    07:00 -4°C° 0 mm 2 mps 751 mmHg 95%
    08:00 -4°C° 0 mm 2 mps 751 mmHg 94%
    09:00 -4°C° 0 mm 2 mps 751 mmHg 94%
    10:00 -3°C° 0 mm 2 mps 751 mmHg 93%
    11:00 -3°C° 0 mm 2 mps 751 mmHg 92%
    12:00 -3°C° 0 mm 2 mps 751 mmHg 90%
    13:00 0°C° 0 mm 1 mps 751 mmHg 89%
    14:00 -1°C° 0 mm 1 mps 751 mmHg 90%
    15:00 -1°C° 0 mm 1 mps 752 mmHg 90%
    16:00 -1°C° 0 mm 1 mps 752 mmHg 91%
    17:00 -2°C° 0 mm 1 mps 753 mmHg 92%
    18:00 -2°C° 0 mm 1 mps 753 mmHg 92%
    19:00 -2°C° 0 mm 1 mps 754 mmHg 92%
    20:00 -2°C° 0 mm 1 mps 755 mmHg 92%
    21:00 -2°C° 0 mm 1 mps 755 mmHg 92%
    22:00 -2°C° 0 mm 1 mps 756 mmHg 92%
    23:00 -4°C° 0 mm 2 mps 756 mmHg 91%

    19 December, Tuesday

    Time Temperature Precipitation Wind Pressure Humidity
    00:00 -4°C° 0 mm 2 mps 757 mmHg 90%
    01:00 -4°C° 0 mm 2 mps 757 mmHg 89%
    02:00 -3°C° 0 mm 2 mps 758 mmHg 89%
    03:00 -3°C° 0 mm 2 mps 758 mmHg 88%
    04:00 -3°C° 0 mm 2 mps 759 mmHg 87%
    05:00 -2°C° 0 mm 2 mps 759 mmHg 87%
    06:00 -2°C° 0 mm 2 mps 760 mmHg 87%
    07:00 -2°C° 0 mm 2 mps 760 mmHg 86%
    08:00 -2°C° 0 mm 2 mps 761 mmHg 86%
    09:00 -2°C° 0 mm 2 mps 761 mmHg 85%
    10:00 -1°C° 0 mm 2 mps 762 mmHg 84%
    11:00 -1°C° 0 mm 3 mps 762 mmHg 83%
    12:00 -1°C° 0 mm 3 mps 762 mmHg 83%
    13:00 0°C° 0 mm 3 mps 762 mmHg 82%
    14:00 -1°C° 0 mm 3 mps 762 mmHg 84%
    15:00 -1°C° 0 mm 3 mps 762 mmHg 87%
    16:00 -2°C° 0 mm 3 mps 762 mmHg 89%
    17:00 -1°C° 0.2 mm 3 mps 762 mmHg 91%
    18:00 -1°C° 0.2 mm 3 mps 762 mmHg 92%
    19:00 -2°C° 0.2 mm 4 mps 762 mmHg 93%
    20:00 -1°C° 0.2 mm 4 mps 762 mmHg 93%
    21:00 -1°C° 0.2 mm 4 mps 762 mmHg 93%
    22:00 -1°C° 0.2 mm 4 mps 761 mmHg 94%
    23:00 -1°C° 0.1 mm 4 mps 761 mmHg 93%
    Show more